Surf Forecast Lombok

Surf Forecast Lombok

Kuta, Lombok, is a surfer’s paradise known for its stunning beaches, consistent waves, and vibrant surf culture. The surf forecast provides essential information for both beginner and experienced surfers looking to catch the best waves.

Our surf forecast offers detailed insights into weather conditions over the next few days, including crucial parameters such as temperature, wind speed and direction, precipitation, and cloud cover. These factors play a significant role in determining wave quality and surf conditions.

Whether you’re planning a surf trip or just curious about the ocean conditions, our accurate and up-to-date forecasts will help you make informed decisions for your surfing adventures in Kuta, Lombok. Stay updated and ride the waves with confidence!

Surf Forecast for Kuta, Lombok

Time (UTC)Temperature (°C)Apparent Temperature (°C)Precipitation Probability (%)Precipitation (mm)MSL Pressure (hPa)Cloud Cover (%)Visibility (m)Wind Speed (m/s)Wind Direction (°)Wind Gusts (m/s)
2026-05-08 00:00:0028 °C31 °C0 %0 mm1010.6 hPa63 %49360 m18.7 m/s120 °34.9 m/s
2026-05-08 01:00:0028.6 °C31.1 °C0 %0 mm1010.9 hPa45 %49340 m21 m/s113 °40.3 m/s
2026-05-08 02:00:0029.1 °C31.9 °C0 %0 mm1010.8 hPa12 %51100 m21.4 m/s111 °42.1 m/s
2026-05-08 03:00:0029.8 °C33 °C2 %0 mm1010.2 hPa0 %51100 m22.4 m/s117 °43.9 m/s
2026-05-08 04:00:0030.1 °C33.4 °C9 %0 mm1009.3 hPa2 %51100 m23.7 m/s121 °46.8 m/s
2026-05-08 05:00:0030 °C33.1 °C18 %0 mm1008.2 hPa23 %51080 m25.4 m/s125 °49.3 m/s
2026-05-08 06:00:0029.8 °C32.4 °C24 %0 mm1007.6 hPa29 %51080 m26.6 m/s127 °51.5 m/s
2026-05-08 07:00:0029.4 °C31.5 °C23 %0 mm1007.2 hPa24 %51080 m27.5 m/s128 °52.2 m/s
2026-05-08 08:00:0028.8 °C30.4 °C19 %0 mm1007.4 hPa2 %49300 m28.4 m/s129 °52.9 m/s
2026-05-08 09:00:0028.1 °C29.7 °C14 %0 mm1007.7 hPa2 %49300 m27.9 m/s124 °53.3 m/s
2026-05-08 10:00:0027.5 °C29.4 °C9 %0 mm1008 hPa2 %49280 m25.1 m/s120 °51.1 m/s
2026-05-08 11:00:0027.4 °C29.6 °C4 %0 mm1008.7 hPa8 %49280 m22.1 m/s113 °44.3 m/s
2026-05-08 12:00:0027.3 °C29.9 °C0 %0 mm1009.6 hPa13 %49280 m20.3 m/s110 °39.2 m/s
2026-05-08 13:00:0027.3 °C30 °C0 %0 mm1010.3 hPa73 %48520 m19.2 m/s107 °36 m/s
2026-05-08 14:00:0026.9 °C29.8 °C0 %0 mm1010.4 hPa90 %46160 m18.4 m/s108 °34.6 m/s
2026-05-08 15:00:0026.6 °C30 °C0 %0 mm1010.4 hPa4 %46160 m15.8 m/s111 °32 m/s
2026-05-08 16:00:0026.5 °C29.5 °C0 %0 mm1010.5 hPa1 %46160 m16.8 m/s115 °29.9 m/s
2026-05-08 17:00:0026.2 °C29.7 °C0 %0 mm1010.4 hPa1 %41920 m15 m/s114 °29.9 m/s
2026-05-08 18:00:0026 °C29.9 °C0 %0 mm1009.9 hPa0 %46140 m13 m/s114 °26.3 m/s
2026-05-08 19:00:0026 °C29.8 °C0 %0 mm1009.5 hPa4 %43440 m13.8 m/s112 °24.5 m/s
2026-05-08 20:00:0026.2 °C29.9 °C0 %0 mm1009.3 hPa2 %46120 m13.8 m/s108 °24.8 m/s
2026-05-08 21:00:0026.5 °C29.1 °C0 %0 mm1009.2 hPa0 %49220 m16.5 m/s108 °28.4 m/s
2026-05-08 22:00:0026.2 °C28.3 °C0 %0 mm1009.2 hPa0 %49200 m18.7 m/s106 °32.8 m/s
2026-05-08 23:00:0026.4 °C28.5 °C0 %0 mm1009.8 hPa0 %49200 m18.3 m/s105 °33.1 m/s
2026-05-09 00:00:0027.6 °C29.5 °C0 %0 mm1010.6 hPa0 %50960 m19.7 m/s108 °37.4 m/s
2026-05-09 01:00:0028.5 °C30.2 °C0 %0 mm1011.3 hPa0 %50960 m20.5 m/s110 °39.6 m/s
2026-05-09 02:00:0029.2 °C31.1 °C0 %0 mm1011.1 hPa1 %50960 m21.7 m/s115 °42.5 m/s
2026-05-09 03:00:0029.6 °C31.8 °C0 %0 mm1010.6 hPa0 %50940 m23.8 m/s119 °46.4 m/s
2026-05-09 04:00:0029.6 °C32 °C9 %0 mm1009.7 hPa0 %50940 m25.3 m/s121 °49.7 m/s
2026-05-09 05:00:0029.8 °C32.4 °C22 %0 mm1009 hPa17 %50940 m23.9 m/s124 °49.7 m/s
2026-05-09 06:00:0029.6 °C32.2 °C29 %0 mm1008.4 hPa40 %50920 m22.9 m/s124 °47.2 m/s
2026-05-09 07:00:0029.4 °C31.4 °C26 %0 mm1007.9 hPa100 %50920 m23.6 m/s129 °45.7 m/s
2026-05-09 08:00:0028.9 °C30.3 °C19 %0 mm1007.8 hPa100 %50920 m23.9 m/s129 °45.7 m/s
2026-05-09 09:00:0028.3 °C29.7 °C12 %0 mm1008.3 hPa99 %50900 m24.1 m/s126 °45.4 m/s
2026-05-09 10:00:0027.7 °C29 °C9 %0 mm1008.7 hPa51 %50900 m24.1 m/s119 °44.6 m/s
2026-05-09 11:00:0027.5 °C28.7 °C6 %0 mm1009.2 hPa13 %49120 m24.3 m/s114 °43.2 m/s
2026-05-09 12:00:0027.5 °C28.9 °C4 %0 mm1010 hPa16 %50900 m22.8 m/s111 °43.2 m/s
2026-05-09 13:00:0027.5 °C28.9 °C2 %0 mm1010.7 hPa12 %49100 m22.4 m/s109 °40.3 m/s
2026-05-09 14:00:0027.4 °C29.2 °C1 %0 mm1011.1 hPa11 %49100 m20.4 m/s109 °39.6 m/s
2026-05-09 15:00:0027.3 °C29.5 °C0 %0 mm1011.1 hPa7 %49100 m17.1 m/s105 °35.6 m/s
2026-05-09 16:00:0026.9 °C29.5 °C0 %0 mm1011 hPa11 %49080 m15.9 m/s99 °29.9 m/s
2026-05-09 17:00:0026.6 °C29.7 °C0 %0 mm1010.7 hPa14 %47940 m15.5 m/s99 °27.7 m/s
2026-05-09 18:00:0026.5 °C29.6 °C0 %0 mm1009.9 hPa13 %49080 m15.7 m/s101 °27.4 m/s
2026-05-09 19:00:0026.5 °C29.6 °C0 %0 mm1009.2 hPa13 %47140 m16.2 m/s104 °28.4 m/s
2026-05-09 20:00:0026.5 °C29.6 °C0 %0 mm1009.1 hPa19 %43980 m15.8 m/s107 °28.4 m/s
2026-05-09 21:00:0026.5 °C29.5 °C0 %0 mm1009.3 hPa21 %35920 m16.2 m/s109 °28.4 m/s
2026-05-09 22:00:0026.6 °C29.3 °C0 %0 mm1009.7 hPa20 %29640 m16.9 m/s111 °30.2 m/s
2026-05-09 23:00:0026.9 °C29.5 °C0 %0 mm1010.3 hPa16 %14320 m18 m/s112 °31.7 m/s
2026-05-10 00:00:0027.5 °C29.6 °C0 %0.1 mm1010.9 hPa23 %12960 m22.4 m/s116 °41.4 m/s
2026-05-10 01:00:0028 °C30 °C7 %0.1 mm1011.4 hPa23 %18140 m22.7 m/s114 °43.6 m/s
2026-05-10 02:00:0028.6 °C30.8 °C16 %0.1 mm1011.5 hPa30 %17320 m23.8 m/s119 °46.4 m/s
2026-05-10 03:00:0029 °C31.5 °C24 %0.1 mm1011.1 hPa16 %23780 m25.2 m/s121 °49 m/s
2026-05-10 04:00:0029.6 °C32.3 °C29 %0 mm1010.2 hPa8 %29840 m25.4 m/s123 °50 m/s
2026-05-10 05:00:0029.8 °C32.3 °C32 %0 mm1009.3 hPa3 %50780 m25.7 m/s126 °50.4 m/s
2026-05-10 06:00:0029.6 °C32.1 °C31 %0 mm1008.6 hPa7 %50780 m25.6 m/s127 °50.4 m/s
2026-05-10 07:00:0029 °C31 °C25 %0 mm1008.1 hPa4 %50780 m25.7 m/s130 °51.1 m/s
2026-05-10 08:00:0028.6 °C30.4 °C16 %0 mm1008 hPa2 %50760 m23.8 m/s130 °49.7 m/s
2026-05-10 09:00:0028.2 °C29.9 °C8 %0 mm1008.4 hPa7 %48980 m24.5 m/s129 °45.7 m/s
2026-05-10 10:00:0027.6 °C29.5 °C4 %0 mm1008.9 hPa46 %48980 m23.7 m/s124 °45.7 m/s
2026-05-10 11:00:0027.5 °C29.3 °C2 %0 mm1009.5 hPa68 %48540 m23.3 m/s118 °42.5 m/s
2026-05-10 12:00:0027.6 °C29.4 °C0 %0 mm1010.3 hPa24 %48960 m22.8 m/s114 °41.4 m/s
2026-05-10 13:00:0027.6 °C29.6 °C0 %0 mm1011 hPa55 %48960 m21.9 m/s111 °40.3 m/s
2026-05-10 14:00:0027.5 °C30 °C0 %0 mm1011.2 hPa91 %48940 m19.2 m/s107 °38.9 m/s
2026-05-10 15:00:0027.4 °C30.2 °C0 %0 mm1011.2 hPa84 %46200 m18.1 m/s100 °33.8 m/s
2026-05-10 16:00:0027 °C30.3 °C0 %0 mm1010.9 hPa83 %44380 m16.5 m/s100 °31.7 m/s
2026-05-10 17:00:0026.5 °C29.9 °C0 %0 mm1010.2 hPa89 %43920 m15.9 m/s110 °28.4 m/s
2026-05-10 18:00:0026.4 °C29.8 °C0 %0 mm1009.5 hPa98 %45800 m16.6 m/s116 °29.2 m/s
2026-05-10 19:00:0026.4 °C30 °C0 %0 mm1009.1 hPa96 %45800 m15.5 m/s110 °29.2 m/s
2026-05-10 20:00:0026.4 °C30.1 °C0 %0 mm1008.9 hPa35 %35960 m15.1 m/s112 °27.7 m/s
2026-05-10 21:00:0026.4 °C30 °C0 %0 mm1009.1 hPa33 %35800 m15.4 m/s109 °27 m/s
2026-05-10 22:00:0026.2 °C30.1 °C0 %0 mm1009.5 hPa8 %22260 m14.4 m/s112 °27 m/s
2026-05-10 23:00:0026.9 °C30.6 °C0 %0 mm1010.3 hPa0 %44840 m13.9 m/s107 °25.6 m/s
2026-05-11 00:00:0028 °C31.1 °C0 %0 mm1011.1 hPa0 %48880 m16.4 m/s116 °31.3 m/s
2026-05-11 01:00:0028.8 °C31.3 °C0 %0 mm1011.4 hPa10 %48880 m20.1 m/s118 °38.9 m/s
2026-05-11 02:00:0029.4 °C32 °C0 %0 mm1011.4 hPa97 %48860 m23.4 m/s119 °45.7 m/s
2026-05-11 03:00:0029.8 °C32.9 °C4 %0 mm1011 hPa98 %50640 m24.2 m/s123 °48.6 m/s
2026-05-11 04:00:0030.1 °C33.5 °C15 %0 mm1010.4 hPa55 %50640 m23.1 m/s128 °47.9 m/s
2026-05-11 05:00:0030.2 °C33.8 °C28 %0 mm1009.5 hPa4 %50640 m23.3 m/s132 °46.8 m/s
2026-05-11 06:00:0029.9 °C33.1 °C37 %0 mm1008.8 hPa2 %50620 m24 m/s132 °47.5 m/s
2026-05-11 07:00:0029.4 °C32.5 °C37 %0 mm1008.3 hPa3 %48840 m23.2 m/s134 °47.5 m/s
2026-05-11 08:00:0028.9 °C31.4 °C31 %0 mm1008 hPa12 %48820 m22.3 m/s131 °46.1 m/s
2026-05-11 09:00:0028.4 °C30.8 °C25 %0 mm1008.4 hPa19 %47560 m22.8 m/s127 °43.6 m/s
2026-05-11 10:00:0027.9 °C30.4 °C17 %0 mm1008.9 hPa25 %46720 m21.2 m/s124 °42.8 m/s
2026-05-11 11:00:0027.8 °C30.4 °C9 %0 mm1009.5 hPa26 %48800 m20.6 m/s117 °37.8 m/s
2026-05-11 12:00:0027.7 °C30.3 °C2 %0 mm1010.1 hPa29 %48800 m20.2 m/s114 °36.7 m/s
2026-05-11 13:00:0027.6 °C30.5 °C0 %0 mm1011 hPa41 %48800 m18.9 m/s112 °36 m/s
2026-05-11 14:00:0027.4 °C30.5 °C0 %0 mm1011.2 hPa38 %12000 m17.7 m/s114 °33.8 m/s
2026-05-11 15:00:0027 °C30.2 °C0 %0.1 mm1011 hPa57 %9600 m17.8 m/s113 °32 m/s
2026-05-11 16:00:0026.8 °C30.2 °C0 %0.1 mm1010.9 hPa41 %10820 m16.1 m/s110 °31.3 m/s
2026-05-11 17:00:0026.8 °C30.1 °C0 %0.1 mm1010.4 hPa27 %12460 m16.6 m/s112 °29.2 m/s
2026-05-11 18:00:0026.6 °C30.1 °C0 %0.1 mm1009.7 hPa34 %11520 m15.8 m/s113 °28.8 m/s
2026-05-11 19:00:0026.3 °C29.9 °C0 %0.2 mm1009.3 hPa29 %15720 m15.9 m/s112 °28.8 m/s
2026-05-11 20:00:0026 °C29.7 °C0 %0.2 mm1009.1 hPa25 %19920 m16.2 m/s111 °29.5 m/s
2026-05-11 21:00:0025.9 °C29.6 °C0 %0.2 mm1009 hPa22 %24120 m16.7 m/s110 °30.6 m/s
2026-05-11 22:00:0026.1 °C29.8 °C0 %0 mm1009.4 hPa15 %25360 m17.5 m/s109 °32.4 m/s
2026-05-11 23:00:0026.6 °C30.2 °C0 %0 mm1010 hPa9 %26620 m18.5 m/s109 °34.6 m/s
2026-05-12 00:00:0027.3 °C30.7 °C0 %0 mm1010.4 hPa13 %27860 m19.4 m/s111 °37.1 m/s
2026-05-12 01:00:0028.1 °C31.3 °C10 %0 mm1010.5 hPa38 %31120 m20.3 m/s115 °39.6 m/s
2026-05-12 02:00:0029 °C31.9 °C23 %0 mm1010.4 hPa74 %34380 m21.4 m/s121 °42.1 m/s
2026-05-12 03:00:0029.6 °C32.9 °C37 %0 mm1010.1 hPa99 %37640 m22.6 m/s126 °44.6 m/s
2026-05-12 04:00:0029.9 °C33.6 °C52 %0.1 mm1009.3 hPa100 %40720 m23.6 m/s129 °46.4 m/s
2026-05-12 05:00:0029.9 °C33.7 °C68 %0.1 mm1008.3 hPa98 %43820 m24.4 m/s132 °48.2 m/s
2026-05-12 06:00:0029.8 °C33.4 °C75 %0.1 mm1007.5 hPa86 %46900 m24.8 m/s134 °49.3 m/s
2026-05-12 07:00:0029.5 °C32.5 °C69 %0 mm1007.2 hPa65 %40900 m24.9 m/s134 °49.7 m/s
2026-05-12 08:00:0029 °C31.6 °C55 %0 mm1007.2 hPa38 %34900 m24.7 m/s134 °49.7 m/s
2026-05-12 09:00:0028.5 °C31.1 °C41 %0 mm1007.4 hPa25 %28900 m24 m/s133 °49.3 m/s
2026-05-12 10:00:0027.9 °C30.7 °C28 %0.1 mm1008.1 hPa39 %21500 m22.2 m/s129 °48.2 m/s
2026-05-12 11:00:0027.2 °C30.3 °C16 %0.1 mm1009 hPa67 %14120 m20.1 m/s123 °46.8 m/s
2026-05-12 12:00:0026.7 °C30 °C6 %0.1 mm1009.7 hPa81 %6720 m18.8 m/s117 °45 m/s
2026-05-12 13:00:0026.4 °C29.8 °C2 %0.3 mm1010 hPa68 %10460 m18.9 m/s114 °42.1 m/s
2026-05-12 14:00:0026.2 °C29.7 °C0 %0.3 mm1010 hPa42 %14200 m19.5 m/s113 °38.5 m/s
2026-05-12 15:00:0026.1 °C29.7 °C0 %0.3 mm1009.9 hPa22 %17940 m19.6 m/s112 °35.6 m/s
2026-05-12 16:00:0026 °C29.8 °C0 %0 mm1009.5 hPa15 %17960 m18.7 m/s111 °34.6 m/s
2026-05-12 17:00:0026 °C29.9 °C0 %0 mm1008.8 hPa14 %17960 m17.4 m/s109 °34.6 m/s
2026-05-12 18:00:0026 °C30 °C0 %0 mm1008.3 hPa20 %17980 m16.2 m/s109 °33.8 m/s
2026-05-12 19:00:0026 °C30.1 °C0 %0 mm1007.8 hPa37 %24540 m15.4 m/s111 °31.7 m/s
2026-05-12 20:00:0026 °C30.2 °C0 %0 mm1007.5 hPa61 %31080 m14.7 m/s114 °29.2 m/s
2026-05-12 21:00:0026.2 °C30.4 °C0 %0 mm1007.4 hPa80 %37640 m14.7 m/s115 °27.7 m/s
2026-05-12 22:00:0026.8 °C30.8 °C0 %0 mm1007.9 hPa90 %35040 m15.5 m/s113 °28.8 m/s
2026-05-12 23:00:0027.6 °C31.5 °C0 %0 mm1008.6 hPa94 %32420 m16.7 m/s111 °31 m/s
2026-05-13 00:00:0028.4 °C32.1 °C0 %0 mm1009.2 hPa97 %29820 m17.8 m/s111 °33.5 m/s
2026-05-13 01:00:0029 °C32.9 °C2 %0 mm1009.4 hPa100 %31800 m18.1 m/s117 °35.6 m/s
2026-05-13 02:00:0029.7 °C33.5 °C5 %0 mm1009.3 hPa100 %33760 m18.6 m/s125 °37.8 m/s
2026-05-13 03:00:0030.1 °C34.7 °C16 %0 mm1009 hPa96 %35740 m19.3 m/s131 °39.6 m/s
2026-05-13 04:00:0030.2 °C35.2 °C41 %0 mm1008.3 hPa71 %39240 m20.1 m/s135 °41.4 m/s
2026-05-13 05:00:0030.1 °C35 °C72 %0 mm1007.4 hPa37 %42720 m21.2 m/s138 °42.5 m/s
2026-05-13 06:00:0029.9 °C34.4 °C94 %0 mm1006.7 hPa13 %46220 m21.4 m/s138 °43.6 m/s
2026-05-13 07:00:0029.4 °C33.4 °C99 %0.5 mm1006.5 hPa12 %36360 m20.6 m/s135 °44.3 m/s
2026-05-13 08:00:0028.9 °C32.6 °C93 %0.5 mm1006.5 hPa21 %26500 m19.5 m/s129 °44.3 m/s
2026-05-13 09:00:0028.4 °C32.3 °C82 %0.5 mm1006.8 hPa27 %16640 m18.5 m/s122 °43.6 m/s
2026-05-13 10:00:0028 °C32 °C61 %0 mm1007.4 hPa24 %20360 m17.6 m/s116 °41.4 m/s
2026-05-13 11:00:0027.5 °C31.7 °C35 %0 mm1008.3 hPa18 %24100 m17 m/s109 °38.5 m/s
2026-05-13 12:00:0027.2 °C31.3 °C14 %0 mm1008.9 hPa13 %27820 m16.8 m/s105 °36 m/s
2026-05-13 13:00:0027 °C31.1 °C5 %0 mm1009.1 hPa11 %32280 m17.1 m/s105 °34.6 m/s
2026-05-13 14:00:0027 °C31 °C3 %0 mm1009.2 hPa10 %36720 m17.7 m/s107 °33.8 m/s
2026-05-13 15:00:0026.9 °C30.9 °C2 %0 mm1009 hPa13 %41180 m17.7 m/s109 °33.1 m/s
2026-05-13 16:00:0026.9 °C31 °C1 %0 mm1008.6 hPa21 %41140 m16.9 m/s111 °32.4 m/s
2026-05-13 17:00:0026.9 °C31 °C0 %0 mm1008 hPa33 %41100 m15.9 m/s112 °32 m/s
2026-05-13 18:00:0026.8 °C31.1 °C0 %0 mm1007.6 hPa47 %41060 m14.6 m/s112 °31 m/s
2026-05-13 19:00:0026.6 °C31.2 °C0 %0 mm1007.5 hPa65 %38460 m13.1 m/s111 °29.2 m/s
2026-05-13 20:00:0026.5 °C31.2 °C0 %0 mm1007.5 hPa85 %35860 m11.7 m/s108 °26.6 m/s
2026-05-13 21:00:0026.5 °C31.3 °C0 %0 mm1007.7 hPa99 %33260 m11.2 m/s105 °25.6 m/s
2026-05-13 22:00:0028 °C32.2 °C0 %0 mm1009 hPa86 %38120 m14.9 m/s109 °29.5 m/s
2026-05-13 23:00:0028.2 °C32.4 °C0 %0 mm1009.3 hPa94 %43000 m15.2 m/s109 °29.5 m/s
2026-05-14 00:00:0028.5 °C32.7 °C0 %0 mm1009.4 hPa100 %47860 m15.3 m/s109 °29.9 m/s
2026-05-14 01:00:0028.9 °C33 °C11 %0.1 mm1009.2 hPa100 %47940 m15.3 m/s111 °30.6 m/s
2026-05-14 02:00:0029.1 °C33.3 °C26 %0.1 mm1008.9 hPa100 %48040 m15.2 m/s114 °32 m/s
2026-05-14 03:00:0029.4 °C33.8 °C42 %0.1 mm1008.4 hPa100 %48120 m15.3 m/s118 °33.8 m/s
2026-05-14 04:00:0029.6 °C34.5 °C57 %0.1 mm1007.9 hPa100 %48200 m15.4 m/s122 °35.3 m/s
2026-05-14 05:00:0029.8 °C34.7 °C73 %0.1 mm1007.5 hPa100 %48300 m15.7 m/s124 °36.7 m/s
2026-05-14 06:00:0029.8 °C34.5 °C84 %0.1 mm1007.4 hPa100 %48380 m16.1 m/s125 °37.8 m/s
2026-05-14 07:00:0029.5 °C33.7 °C90 %0.3 mm1007.6 hPa100 %46400 m16.8 m/s125 °38.5 m/s
2026-05-14 08:00:0029.1 °C32.9 °C91 %0.3 mm1007.9 hPa100 %44420 m17.9 m/s122 °38.5 m/s
2026-05-14 09:00:0028.6 °C32.3 °C91 %0.3 mm1008.4 hPa100 %42440 m19 m/s119 °38.9 m/s
2026-05-14 10:00:0028 °C31.6 °C89 %0.3 mm1008.9 hPa100 %40440 m20 m/s117 °38.9 m/s
2026-05-14 11:00:0027.5 °C31.1 °C85 %0.3 mm1009.3 hPa100 %38460 m20.6 m/s115 °38.5 m/s
2026-05-14 12:00:0027.2 °C30.8 °C78 %0.3 mm1009.5 hPa100 %36480 m20.6 m/s114 °38.5 m/s
2026-05-14 13:00:0027 °C30.7 °C67 %0 mm1009.4 hPa100 %37460 m19.8 m/s113 °38.5 m/s
2026-05-14 14:00:0026.8 °C30.7 °C54 %0 mm1009.1 hPa100 %38440 m18 m/s113 °38.2 m/s
2026-05-14 15:00:0026.8 °C30.9 °C41 %0 mm1008.7 hPa100 %39440 m15.9 m/s113 °38.2 m/s
2026-05-14 16:00:0026.7 °C31.2 °C27 %0 mm1008.2 hPa100 %40420 m13.7 m/s113 °37.8 m/s
2026-05-14 17:00:0026.7 °C31.4 °C14 %0 mm1007.9 hPa100 %41400 m12 m/s114 °37.1 m/s
2026-05-14 18:00:0026.8 °C31.6 °C4 %0 mm1007.8 hPa100 %42380 m11 m/s113 °36.4 m/s
2026-05-14 19:00:0026.9 °C31.7 °C0 %0 mm1008 hPa100 %42840 m10.7 m/s112 °34.9 m/s
2026-05-14 20:00:0027.1 °C31.9 °C0 %0 mm1008.3 hPa100 %43280 m11.1 m/s110 °32.8 m/s
2026-05-14 21:00:0027.4 °C32 °C0 %0 mm1008.8 hPa100 %43740 m11.7 m/s108 °30.6 m/s
2026-05-14 22:00:0027.6 °C32.2 °C0 %0 mm1009.3 hPa100 %44200 m12.6 m/s107 °28.8 m/s
2026-05-14 23:00:0028 °C32.4 °C1 %0 mm1009.6 hPa100 %44640 m13.3 m/s106 °27.4 m/s

*this data using open-mateo.com data

Lombok, with its stunning coastline and pristine beaches, is a surfer’s paradise. This beautiful island offers everything from gentle waves for beginners to challenging swells for seasoned pros.

Understanding the surf forecast in Lombok is crucial for anyone looking to catch the perfect wave. In this guide, we will explore how to read surf forecasts, the best surfing spots in Lombok, and essential tips for making the most of your surfing adventure.

Understanding Surf Forecasts

Surf forecasts provide valuable information about wave conditions, helping surfers plan their sessions. A typical surf forecast includes key elements such as:

  • Wave Height: Indicates the size of the waves. Taller waves typically offer more challenging conditions.
  • Wind Speed and Direction: Wind affects wave quality. Offshore winds create clean, well-formed waves, while onshore winds can create choppy conditions.
  • Tide Times: Tides significantly impact surfing. Some spots work better at high tide, while others are best at low tide.
  • Weather Conditions: Rain and stormy weather can affect visibility and safety, so keeping an eye on weather conditions is vital.

Why Kuta, Lombok is a Surfing Hotspot

Kuta, Lombok, stands out as a vibrant surf culture hub. The area boasts several surf spots catering to various skill levels. For beginners, the mellow waves at Kuta Beach offer a safe and welcoming environment. In contrast, more experienced surfers can challenge themselves at spots like Gerupuk and Selong Belanak, where the waves pack a punch.

How to Read a Surf Forecast

Learning to read a surf forecast is essential for any surfer. Start by checking reliable online resources or apps. Look for the following indicators:

  1. Wave Height: Surfable waves typically range from 1 to 3 meters for most surfers.
  2. Wind Direction: Offshore winds (blowing from land to sea) are ideal. Onshore winds can disrupt wave quality.
  3. Tide Information: Check if the conditions favor high or low tide for your chosen surf spot.

By understanding these elements, you can plan your sessions to coincide with the best conditions.

Local Factors Affecting Surf Conditions

Local weather patterns play a significant role in shaping Lombok’s surf conditions. Seasonal changes bring varying swells, with the dry season (May to September) often providing the best surfing conditions. Additionally, the tides influence wave quality at different spots. Knowing when to surf is key to maximizing your experience.

Top Surfing Seasons in Lombok

Lombok has two main surfing seasons, with each offering unique conditions. The dry season sees consistent swells, making it the prime time for surfers. The wet season (October to March) can bring larger swells but may also come with unpredictable weather. Regardless of the season, checking the surf forecast is vital to ensure a successful trip.

Using Technology to Enhance Your Surf Experience

Technology can significantly improve your surfing experience. Several popular surf forecasting apps and websites provide real-time updates on wave conditions, wind patterns, and tide times. Utilizing these tools helps you stay informed and ready for your next surf session.

Expert Tips for Surfing in Lombok

To make the most of your surfing experience in Lombok, consider these expert tips:

  • Safety First: Always prioritize safety. Check local conditions and follow guidelines from instructors if you’re a beginner.
  • Respect Local Etiquette: Understand and respect local surf etiquette to foster a positive surfing community.
  • Stay Hydrated: Surfing can be physically demanding, so ensure you drink plenty of water during your sessions.

Staying informed with the latest surf forecast in Lombok is essential for any surfer looking to enjoy the best conditions. With its beautiful beaches and vibrant surf culture, Lombok is a destination that promises unforgettable experiences. So grab your board, check the forecast, and ride the waves of Lombok!